Location: Mount Kobau Star Party
(49.1167°N, 119.7333°W)
Time: 08:18:12
(UTC-07:00)

ARIANE 6 FM1 Upper Stage - Visible Passes

Search period start: 11 April 2026 00:00
Search period end: 21 April 2026 00:00
Orbit: 524 x 604 km, 62.0° (Epoch: 11 April)

Date Brightness Start Highest point End Pass type
(mag) Time Alt. Az. Time Alt. Az. Time Alt. Az.
11 Apr 5.7 00:17:48 10° NW 00:19:47 13° N 00:21:46 10° NNE visible
11 Apr 5.3 01:57:26 10° NNW 02:00:13 18° NNE 02:02:59 10° ENE visible
11 Apr 3.0 03:36:01 10° NW 03:39:57 60° NE 03:43:51 10° ESE visible
11 Apr 3.8 05:15:39 10° WNW 05:18:35 20° WSW 05:21:30 10° SSW visible
11 Apr 2.7 20:55:37 10° SW 20:59:45 78° NW 21:03:48 10° NE visible
11 Apr 5.2 22:36:13 10° WNW 22:39:19 20° NNW 22:42:23 10° NNE visible
12 Apr 5.7 00:17:45 10° NNW 00:19:41 13° N 00:21:36 10° NNE visible
12 Apr 5.1 01:56:59 10° NNW 02:00:03 21° NNE 02:03:04 10° ENE visible
12 Apr 2.5 03:35:37 10° NW 03:39:35 82° NE 03:43:33 10° SE visible
12 Apr 4.2 05:15:54 10° W 05:18:02 14° WSW 05:20:09 10° SSW visible
12 Apr 3.3 20:55:20 10° WSW 20:59:24 58° NW 21:03:23 10° NE visible
12 Apr 5.4 22:36:19 10° WNW 22:39:08 18° NNW 22:41:56 10° NNE visible
13 Apr 5.7 00:17:35 10° NNW 00:19:34 13° N 00:21:33 10° NE visible
13 Apr 4.7 01:56:32 10° NNW 01:59:50 24° NNE 02:00:16 24° NE visible
13 Apr 4.7 03:35:15 10° NW 03:36:07 16° NW 03:36:07 16° NW visible
13 Apr 3.9 20:55:08 10° WSW 20:59:04 44° NW 21:02:57 10° NE visible
13 Apr 5.6 22:36:26 10° NW 22:38:58 16° NNW 22:41:31 10° NNE visible
14 Apr 5.6 00:17:19 10° NNW 00:19:27 14° N 00:21:34 10° NE visible
14 Apr 4.6 01:56:04 10° NNW 01:58:36 26° N 01:58:36 26° N visible
14 Apr 4.4 20:55:01 10° W 20:58:47 34° NW 21:02:29 10° NNE visible
14 Apr 5.6 22:36:32 10° NW 22:38:50 15° NNW 22:41:07 10° NNE visible
15 Apr 5.5 00:16:59 10° NNW 00:19:19 15° NNE 00:21:33 10° NE visible
15 Apr 4.7 01:55:37 10° NNW 01:57:29 23° NNW 01:57:29 23° NNW visible
15 Apr 4.8 20:54:57 10° W 20:58:31 28° NNW 21:02:01 10° NNE visible
15 Apr 5.5 22:36:36 10° NW 22:38:42 14° N 22:40:47 10° NNE visible
16 Apr 5.2 00:16:35 10° NNW 00:19:10 16° NNE 00:20:37 14° NE visible
16 Apr 4.8 01:55:09 10° NW 01:56:34 20° NNW 01:56:34 20° NNW visible
16 Apr 5.1 20:54:58 10° W 20:58:17 23° NNW 21:01:33 10° NNE visible
16 Apr 5.5 22:36:37 10° NNW 22:38:34 13° N 22:40:32 10° NNE visible
17 Apr 5.0 00:16:08 10° NNW 00:19:00 18° NNE 00:19:48 17° NE visible
17 Apr 5.0 01:54:43 10° NW 01:55:45 17° NW 01:55:45 17° NW visible
17 Apr 5.3 20:55:02 10° WNW 20:58:04 20° NNW 21:01:04 10° NNE visible
17 Apr 5.5 22:36:30 10° NNW 22:38:27 13° N 22:40:23 10° NNE visible
18 Apr 4.8 00:15:40 10° NNW 00:18:47 21° NNE 00:19:03 21° NNE visible
18 Apr 5.1 01:54:18 10° NW 01:55:00 15° NW 01:55:00 15° NW visible
18 Apr 5.3 20:55:07 10° WNW 20:57:52 17° NNW 21:00:37 10° NNE visible
18 Apr 5.4 22:36:18 10° NNW 22:38:19 13° N 22:40:20 10° NE visible
19 Apr 4.6 00:15:11 10° NNW 00:18:20 25° NNE 00:18:20 25° NNE visible
19 Apr 5.3 01:53:56 10° NW 01:54:18 12° NW 01:54:18 12° NW visible
19 Apr 5.3 20:55:12 10° NW 20:57:42 16° NNW 21:00:10 10° NNE visible
19 Apr 5.3 22:36:00 10° NNW 22:38:10 14° N 22:40:21 10° NE visible
20 Apr 4.3 00:14:42 10° NNW 00:17:40 29° NNE 00:17:40 29° NNE visible
20 Apr 5.4 01:53:36 10° NW 01:53:37 10° NW 01:53:37 10° NW visible
20 Apr 5.3 20:55:17 10° NW 20:57:32 14° N 20:59:46 10° NNE visible
20 Apr 5.2 22:35:37 10° NNW 22:38:01 15° NNE 22:40:25 10° NE visible
